Regional Weather Roundup
Issued by NWS

Home | Current Version | Previous Version | Graphics & Text | Print | Product List | Glossary On
Versions: 1 2 3 4 5 6 7 8 9 10 11 12 13 14 15 16 17 18 19 20 21 22 23 24 25 26 27 28 29 30 31 32 33 34 35 36 37 38 39 40 41 42 43 44 45 46 47 48 49 50
000
ASUS43 KDTX 232201
RWRMI
MICHIGAN HOURLY REGIONAL WEATHER ROUNDUP
NATIONAL WEATHER SERVICE DETROIT/PONTIAC MI
600 PM EDT FRI JUN 23 2017

NOTE: "FAIR" INDICATES FEW OR NO CLOUDS BELOW 12,000 FEET WITH NO
SIGNIFICANT WEATHER AND/OR OBSTRUCTION TO VISIBILITY.

MIZ047>049-052>055-059>063-066>070-074>076-081>083-232300-
SOUTHEAST LOWER MICHIGAN

CITY           SKY/WX    TMP DP  RH WIND       PRES   REMARKS
ADRIAN         CLOUDY    75  65  70 NW9G18    29.66R
ALMA           CLOUDY    74  56  53 W12       29.65R
ANN ARBOR      CLOUDY    75  65  70 W12G23    29.63S
BAD AXE        CLOUDY    75  62  62 W8        29.61R
CARO           CLOUDY    76  62  61 NW8       29.60F
DETROIT CITY   CLOUDY    76  64  66 W9        29.60S
DETROIT        CLOUDY    76  65  68 NW10      29.63R
FLINT          PTSUNNY   77  59  53 NW10      29.62S
GROSSE ILE     CLOUDY    75  65  71 NW10G16   29.60S
HILLSDALE      CLOUDY    72  59  64 W13G20    29.68R
HOWELL         CLOUDY    75  57  53 W14       29.64S

CITY           SKY/WX    TMP DP  RH WIND       PRES   REMARKS
JACKSON        CLOUDY    75  62  64 W10       29.66S
LAMBERTVILLE   CLOUDY    74  65  75 W7        29.64R
LANSING        PTSUNNY   78  58  49 NW12      29.65S
LAPEER         PTSUNNY   75  63  66 NW14      29.62R
MASON          PTSUNNY   76  61  58 NW10      29.66R
MONROE         CLOUDY    74  67  77 W6        29.62R
MT. CLEMENS    CLOUDY    76  65  70 W10       29.58S
PONTIAC        CLOUDY    76  64  66 W10       29.61S
PORT HOPE        N/A     71  66  84 CALM      29.58S
PORT HURON     CLOUDY    73  64  73 NW6       29.59F
TRI CITIES     PTSUNNY   77  60  55 NW8       29.62R
MIDLAND        FAIR      76  55  47 NW6       29.62R
TROY           CLOUDY    77  64  63 W3        29.63R
SAGINAW HB     CLOUDY    79  55  44 W12       29.60F
$$
MIZ043>046-050>051-056>058-064>065-071>073-077>080-232300-
SOUTHWEST LOWER MICHIGAN

CITY           SKY/WX    TMP DP  RH WIND       PRES   REMARKS
BATTLE CREEK   MOSUNNY   74  58  57 W10       29.69F
BENTON HARBOR  CLOUDY    75  55  49 W7        29.72S
BIG RAPIDS     SUNNY     75  39  27 NW15      29.66S
COLDWATER      CLOUDY    74  58  55 W13       29.69S
FREMONT        FAIR      77  42  28 NW7       29.66S
HOLLAND        CLOUDY    74  59  59 W8        29.70S
GRAND RAPIDS   CLOUDY    79  47  32 NW12      29.67S
IONIA          FAIR      76  54  46 W9        29.66R
KALAMAZOO      PTSUNNY   74  55  51 W10       29.70S
LUDINGTON      CLOUDY    74  58  57 SW9       29.65S
MARSHALL       CLOUDY    75  57  52 W9G18     29.68S
MOUNT PLEASANT CLOUDY    77  47  34 W8G17     29.63R
MUSKEGON       SUNNY     76  56  49 W7        29.68S
SOUTH HAVEN    CLOUDY    74  60  60 W6        29.71S
$$
MIZ016>042-232300-
NORTHERN LOWER MICHIGAN

CITY           SKY/WX    TMP DP  RH WIND       PRES   REMARKS
ALPENA         SUNNY     78  41  26 W10G20    29.58S
BEAVER ISLAND  CLOUDY    68  56  65 NW6       29.62R
BELLAIRE       SUNNY     76  41  27 W6        29.62S
CADILLAC       SUNNY     75  43  32 W16G24    29.65S
CHARLEVOIX     MOSUNNY   74  49  40 SW12      29.63S
FRANKFORT      SUNNY     72  58  60 S8        29.63S
GAYLORD        SUNNY     75  41  29 W15G23    29.63R
GRAYLING       SUNNY     75  44  32 NW15G22   29.64S
HARBOR SPRINGS MOSUNNY   71  50  47 W6        29.60S
HOUGHTON LAKE  SUNNY     76  44  32 NW9       29.64R
MANISTEE       SUNNY     76  50  40 W13       29.63F
OSCODA         PTSUNNY   72  63  73 S8        29.59R
PELLSTON       PTSUNNY   73  43  33 W10       29.60R
ROGERS CITY    SUNNY     76  44  32 W10G16    29.58S
TRAVERSE CITY  MOSUNNY   79  44  28 W18G25    29.61R
$$
MIZ007>008-015-232300-
EASTERN UPPER MICHIGAN

CITY           SKY/WX    TMP DP  RH WIND       PRES   REMARKS
KINROSS        CLOUDY    67  51  56 NW17G24   29.60S
MACKINAC ISLAN CLOUDY    65  55  70 W9        29.60R
NEWBERRY       CLOUDY    65  46  51 N8G16     29.63R
S. S. MARIE    PTSUNNY   65  52  62 W12       29.61R
MUNISING         N/A     62  50  64 N10       29.63R
$$
MIZ004>006-011>014-085-232300-
CENTRAL UPPER MICHIGAN

CITY           SKY/WX    TMP DP  RH WIND       PRES   REMARKS
MANISTIQUE     PTSUNNY   69  47  44 N12G18    29.61S
ESCANABA       CLOUDY    76  48  37 W10       29.61R
MENOMINEE      MOSUNNY   75  51  43 VRB5      29.63R
SAWYER-GWINN   PTSUNNY   68  46  45 NW15G23   29.64R
$$
MIZ001>003-009>011-084-232300-
WESTERN UPPER MICHIGAN

CITY           SKY/WX    TMP DP  RH WIND       PRES   REMARKS
IRON MOUNTAIN  PTSUNNY   73  45  36 W18G25    29.64R
HOUGHTON       SUNNY     66  48  52 W20G32    29.64R
COPPER HARBOR    N/A     66  49  54 N18G30    29.61S
IRONWOOD       CLOUDY    65  49  56 W10       29.72R
$$

ABBREVIATIONS USED IN REMARKS
   TC - TEMPERATURE IN CELSIUS
  WCI - WIND CHILL INDEX
   HX - HEAT INDEX
  VSB - VISIBILITY





USA.gov is the U.S. government's official web portal to all federal, state and local government web resources and services.